Current weather by "City, St" or "zip code"  
 
Advertise Here

Current Conditions: Tullahoma Regional Airport/William Northern Field, TN

Overcast


30.0 F

Last Updated on Jan 18 2021, 3:55 am CST
Humidity: 75%
Wind Speed: W 5.8 mph
Barometer 29.95 in
Dewpoint: 23.0 F
Visibility: 10.00 mi
Precip: --
Heat Index: NA
Wind Chill: 24 F
Current conditions at:

Tullahoma Regional Airport/William Northern Field, TN (KTHA)

Lat: 35.38 Lon: 86.2467

Local Radar Image active severe weather and emergency alerts image image weather storm and storm spotter reports image weather observation monitoring service image
Local
Radar
Active
Alerts
Storm Reports Obs
Monitoring

Sign-up For Email & Text Message Weather Alert Notification Services


Advertise Here

Observation History for Tullahoma Regional Airport/William Northern Field, TN


Time Wind
(mph)
Vis
(mi)
Weather Precip (in) Temperature (F) Relative
Humidity
Wind
Chill
(F)
Heat
Index
(F)
Pressure
Air Dwpt altimeter
(in)
sea level
(mb)
Rmks
3:55 am CST W 5.8 10.00 Overcast -- 30.0 23.0 75% 24 NA 29.95 M
2:55 am CST SW 6.9 10.00 Overcast -- 34.0 23.0 65% 28 NA 29.94 M
1:55 am CST SW 5.8 10.00 Overcast -- 34.0 23.0 65% 29 NA 29.93 M
12:55 am CST SW 4.6 10.00 Mostly Cloudy -- 34.0 21.2 60% 30 NA 29.91 M
11:55 pm CST SW 4.6 10.00 Overcast -- 34.0 21.2 60% 30 NA 29.90 M
10:55 pm CST SW 3.5 10.00 Mostly Cloudy -- 32.0 21.2 64% NA NA 29.91 M
9:55 pm CST W 4.6 10.00 Partly Cloudy -- 36.0 19.4 52% 32 NA 29.91 M
8:55 pm CST W 8.1 10.00 Partly Cloudy -- 37.0 19.4 48% 31 NA 29.89 M
7:55 pm CST W 9.2 10.00 Overcast -- 39.0 21.2 48% 33 NA 29.88 M
6:55 pm CST W 5.8 10.00 Overcast -- 39.0 23.0 52% 35 NA 29.87 M
5:55 pm CST W 6.9 10.00 Partly Cloudy -- 39.0 21.2 48% 34 NA 29.85 M
4:55 pm CST SW 8.1 10.00 Overcast -- 45.0 23.0 43% 41 NA 29.83 M
3:55 pm CST W 11.5 G 18.4 10.00 Overcast -- 46.0 23.0 40% 41 NA 29.82 M
2:55 pm CST W 12.7 10.00 Overcast -- 46.0 23.0 40% 40 NA 29.81 M
1:55 pm CST W 16.1 G 24.2 10.00 A Few Clouds -- 48.0 24.8 40% 42 NA 29.81 M
12:55 pm CST W 11.5 G 21.9 10.00 Partly Cloudy -- 48.0 26.6 43% 43 NA 29.83 M
11:55 am CST W 13.8 10.00 Mostly Cloudy -- 45.0 26.6 49% 39 NA 29.84 M
10:55 am CST SW 12.7 G 19.6 10.00 Overcast -- 43.0 30.2 61% 36 NA 29.89 M
9:55 am CST SW 8.1 G 16.1 10.00 Overcast -- 39.0 28.4 65% 33 NA 29.91 M
8:55 am CST SW 5.8 10.00 Overcast -- 37.0 28.4 70% 32 NA 29.91 M
7:55 am CST SW 6.9 10.00 Overcast -- 36.0 28.4 75% 30 NA 29.90 M
6:55 am CST SW 6.9 10.00 Overcast -- 36.0 28.4 75% 30 NA 29.89 M
5:55 am CST SW 8.1 10.00 Overcast -- 36.0 28.4 75% 30 NA 29.89 M
4:55 am CST SW 8.1 10.00 Overcast -- 36.0 26.6 70% 30 NA 29.88 M

Regional Weather Observation


Murfreesboro Municipal Airport, TN (KMBT)

Overcast
37.0 F

Tullahoma Regional Airport/William Northern Field, TN (KTHA)

Overcast
30.0 F

Ellington Airport, TN (KLUG)

Mostly Cloudy
34.0 F

Winchester Municipal Airport, TN (KBGF)

Partly Cloudy
36.0 F

Fayetteville Municipal Airport, TN (KFYM)

Fair
34.0 F

McMinnville Warren County Memorial Airport, TN (KRNC)

Overcast
36.0 F